Weather Roundup
Issued by NWS

Home | Current Version | Previous Version | Text Only | Print | Product List | Glossary On
Versions: 1 2 3 4 5 6 7 8 9 10 11 12 13 14 15 16 17 18 19 20 21 22 23 24 25 26 27 28 29 30 31 32 33 34 35 36 37 38 39 40 41 42 43 44 45 46 47 48 49 50
000
NZUS93 KARX 081510
HRRWXR

CURRENT HOURLY OBSERVATIONS ACROSS
MUCH OF THE UPPER MISSISSIPPI VALLEY
NATIONAL WEATHER SERVICE LA CROSSE WI
900 AM CST THU DEC 08 2016


...SOUTHEAST MINNESOTA...


CITY           SKY/WX    TMP DP  RH WIND       PRES   REMARKS
ROCHESTER      MIX PCPN  17  13  84 NW23G29   30.28R WCI  -1
ROCHESTER/MAYO CLOUDY    18  14  84 W21G28    30.28R WCI   1
WINONA           N/A     21  16  79 NW8       30.29R WCI  12
AUSTIN         LGT SNOW  16  12  86 NW14G25   30.31R WCI   1
ALBERT LEA     LGT SNOW  19  16  86 W15G26    30.33R WCI   5
DODGE CENTER   CLOUDY    16  12  86 W17G24    30.29R WCI   0
PRESTON        LGT SNOW  16  11  83 NW21      30.28R WCI  -2
OWATONNA       CLOUDY    16  12  86 W16       30.32R WCI   0
FARIBAULT      NOT AVBL
$$

...ELSEWHERE IN MINNESOTA...


CITY           SKY/WX    TMP DP  RH WIND       PRES   REMARKS
MINNEAPOLIS    MOSUNNY   20  14  77 NW16      30.31R WCI   6
INTNL FALLS    LGT SNOW  18  14  84 NW10      30.26R FOG     WCI   6
DULUTH         MOCLDY    19  15  84 NW15G25   30.17R WCI   5
RED WING       FLURRIES  19  14  79 W9        30.28R WCI   9
REDWOOD FALLS  FLURRIES  15   8  73 NW16G24   30.42R WCI  -1
MANKATO        SUNNY     17  12  80 NW20G30   30.37R WCI   1
WORTHINGTON    CLEAR     10   5  80 NW20G30   30.44R WCI  -9
FAIRMONT       FLURRIES  14   9  80 NW25      30.41R WCI  -5
$$

...SOUTHWEST WISCONSIN...


CITY           SKY/WX    TMP DP  RH WIND       PRES   REMARKS
LA CROSSE      CLOUDY    21  14  74 NW10      30.28R WCI  10
PRAIRIE DU CHI FLURRIES  18  11  72 W13       30.31R WCI   5
BOSCOBEL       CLOUDY    19  11  70 W9        30.29R WCI   8
LONE ROCK      CLOUDY    17  10  74 W15       30.26R WCI   2
PLATTEVILLE    CLOUDY    15  11  82 W15G23    30.28R WCI   0
FORT MC COY    PTSUNNY   19  14  82 W10G17    30.24R WCI   7
CAMP DOUGLAS   PTSUNNY   19  12  73 W15       30.20R WCI   5
MAUSTON-NEW LI MOSUNNY   19  13  76 W15G21    30.20R WCI   5
VIROQUA        CLOUDY    16  13  86 W9        30.22R WCI   4
WIS DELLS      FLURRIES  17  11  78 W10       30.20R WCI   4
$$

...ELSEWHERE IN WISCONSIN...


CITY           SKY/WX    TMP DP  RH WIND       PRES   REMARKS
MILWAUKEE      FLURRIES  20   8  60 W18G25    30.18R WCI   5
MADISON        FLURRIES  16   9  74 W8        30.21R WCI   5
GREEN BAY      FLURRIES  22  15  75 W21G32    30.08R WCI   6
EAU CLAIRE     CLOUDY    21  16  81 W12       30.22R WCI   9
BLACK RVR FLS  LGT SNOW  19  13  79 W10G16    30.22R WCI   7
MEDFORD        CLOUDY    19  15  86 W8        30.11R WCI   9
WAUSAU         CLOUDY    19  15  84 W10       30.10R WCI   7
WIS RAPIDS     LGT SNOW  17  13  84 W9G18     30.17R FOG     WCI   6
MARSHFIELD     CLOUDY    18  13  80 W13       30.13R WCI   5
RICE LAKE      PTSUNNY   22  17  82 W9        30.21R WCI  11
$$

...NORTHEAST IOWA...


CITY           SKY/WX    TMP DP  RH WIND       PRES   REMARKS
WATERLOO       CLOUDY    17   9  70 W13G20    30.37R WCI   4
DUBUQUE        CLOUDY    13   8  81 W14       30.30R WCI  -2
DECORAH        FLURRIES  16  12  86 NW10G22   30.28R WCI   3
MASON CITY     FLURRIES  16  10  77 NW24      30.37R WCI  -2
CHARLES CITY   FLURRIES  16  12  86 NW18      30.34R WCI  -1
OELWEIN        FLURRIES  16  12  86 NW17      30.34R WCI   0
$$

...ELSEWHERE IN IOWA...


CITY           SKY/WX    TMP DP  RH WIND       PRES   REMARKS
DES MOINES     MOSUNNY   14   4  64 NW23G29   30.48R WCI  -5
IOWA CITY      CLOUDY    15   7  70 W14G21    30.43R WCI   0
FORT DODGE     SUNNY     12   5  73 W16G25    30.45R WCI  -4
MARSHALLTOWN   CLOUDY    15   8  73 W22       30.42R WCI  -3
CEDAR RAPIDS   CLOUDY    14  10  84 W23       30.38R WCI  -5
$$

...NORTHERN ILLINOIS...


CITY           SKY/WX    TMP DP  RH WIND       PRES   REMARKS
CHICAGO-OHARE  FLURRIES  17   9  70 W17G28    30.25R WCI   1
CHICAGO-MIDWAY FLURRIES  18   8  65 W16G29    30.27R WCI   3
MOLINE         PTSUNNY   17   7  64 W16G31    30.38R WCI   2
ROCKFORD       FLURRIES  17   8  67 W17       30.29R WCI   1
PEORIA         CLOUDY    19  10  68 W18G28    30.40R WCI   4
$$

NOTE: "FAIR" INDICATES FEW OR NO CLOUDS BELOW 12,000 FEET WITH NO
SIGNIFICANT WEATHER AND/OR OBSTRUCTIONS TO VISIBILITY. WIND
SPEEDS ARE IN MILES-PER-HOUR.




USA.gov is the U.S. government's official web portal to all federal, state and local government web resources and services.